TimeCST,TemperatureF,Dew PointF,Humidity,Sea Level PressureIn,VisibilityMPH,Wind Direction,Wind SpeedMPH,Gust SpeedMPH,PrecipitationIn,Events,Conditions,WindDirDegrees,DateUTC
12:52 AM,1.9,-2.0,83,30.37,9.0,Calm,Calm,-,N/A,,Clear,0,2014-02-03 06:52:00
1:52 AM,-0.0,-2.9,88,30.36,9.0,Calm,Calm,-,N/A,,Clear,0,2014-02-03 07:52:00
2:52 AM,-0.0,-4.0,83,30.36,9.0,Calm,Calm,-,N/A,,Clear,0,2014-02-03 08:52:00
3:52 AM,1.0,-2.9,83,30.34,9.0,Calm,Calm,-,N/A,,Clear,0,2014-02-03 09:52:00
4:52 AM,-0.0,-4.0,83,30.33,8.0,Calm,Calm,-,N/A,,Clear,0,2014-02-03 10:52:00
5:52 AM,-2.0,-6.0,83,30.35,9.0,Calm,Calm,-,N/A,,Clear,0,2014-02-03 11:52:00
6:52 AM,-0.9,-4.0,87,30.35,9.0,Calm,Calm,-,N/A,,Clear,0,2014-02-03 12:52:00
7:52 AM,-0.9,-5.1,83,30.36,6.0,Calm,Calm,-,N/A,,Clear,0,2014-02-03 13:52:00
8:52 AM,3.0,-0.0,87,30.37,6.0,NE,3.5,-,N/A,,Clear,50,2014-02-03 14:52:00
9:52 AM,12.0,7.0,80,30.35,7.0,NE,3.5,-,N/A,,Clear,40,2014-02-03 15:52:00
10:52 AM,21.0,12.0,68,30.36,9.0,Calm,Calm,-,N/A,,Clear,0,2014-02-03 16:52:00
11:52 AM,28.0,14.0,56,30.33,10.0,South,10.4,-,N/A,,Clear,180,2014-02-03 17:52:00
12:52 PM,30.0,14.0,51,30.30,10.0,South,6.9,-,N/A,,Clear,170,2014-02-03 18:52:00
1:52 PM,30.9,14.0,50,30.26,10.0,Calm,Calm,-,N/A,,Clear,0,2014-02-03 19:52:00
2:52 PM,32.0,15.1,50,30.23,10.0,SE,6.9,-,N/A,,Partly Cloudy,130,2014-02-03 20:52:00
3:52 PM,33.1,16.0,50,30.22,10.0,East,9.2,-,N/A,,Scattered Clouds,100,2014-02-03 21:52:00
4:52 PM,32.0,19.0,59,30.20,10.0,ENE,9.2,-,N/A,,Overcast,60,2014-02-03 22:52:00
5:52 PM,28.9,16.0,58,30.21,10.0,East,9.2,-,N/A,,Overcast,80,2014-02-03 23:52:00
6:52 PM,28.9,17.1,61,30.22,10.0,East,8.1,-,N/A,,Overcast,80,2014-02-04 00:52:00
7:52 PM,28.9,18.0,64,30.21,10.0,East,9.2,-,N/A,,Overcast,80,2014-02-04 01:52:00
8:52 PM,28.9,19.0,67,30.22,10.0,ENE,9.2,-,N/A,,Overcast,70,2014-02-04 02:52:00
9:52 PM,28.9,19.0,67,30.23,10.0,ENE,6.9,-,N/A,,Overcast,60,2014-02-04 03:52:00
10:52 PM,28.0,19.9,72,30.22,10.0,NE,9.2,-,N/A,,Overcast,50,2014-02-04 04:52:00
11:52 PM,28.0,19.9,72,30.20,10.0,ENE,10.4,-,N/A,,Overcast,70,2014-02-04 05:52:00